TimeMDT,TemperatureF,Dew PointF,Humidity,Sea Level PressureIn,VisibilityMPH,Wind Direction,Wind SpeedMPH,Gust SpeedMPH,PrecipitationIn,Events,Conditions,WindDirDegrees,DateUTC
1:53 AM,54.0,46.9,77,30.17,10.0,Calm,Calm,-,N/A,,Clear,0,2013-07-31 07:53:00
2:53 AM,52.0,46.0,80,30.18,10.0,SE,4.6,-,N/A,,Mostly Cloudy,140,2013-07-31 08:53:00
3:53 AM,53.1,45.0,74,30.17,10.0,Calm,Calm,-,N/A,,Clear,0,2013-07-31 09:53:00
4:53 AM,50.0,44.1,80,30.17,10.0,SSW,4.6,-,N/A,,Clear,210,2013-07-31 10:53:00
5:53 AM,48.0,44.1,86,30.22,10.0,Calm,Calm,-,N/A,,Clear,0,2013-07-31 11:53:00
6:53 AM,50.0,45.0,83,30.22,10.0,Calm,Calm,-,N/A,,Clear,0,2013-07-31 12:53:00
7:53 AM,61.0,46.9,60,30.19,10.0,Calm,Calm,-,N/A,,Clear,0,2013-07-31 13:53:00
8:53 AM,69.1,45.0,42,30.19,10.0,ENE,9.2,-,N/A,,Clear,60,2013-07-31 14:53:00
9:53 AM,75.9,46.9,36,30.17,10.0,ENE,9.2,-,N/A,,Clear,60,2013-07-31 15:53:00
10:53 AM,81.0,46.0,29,30.16,10.0,NE,5.8,-,N/A,,Clear,50,2013-07-31 16:53:00
11:53 AM,84.0,39.9,21,30.13,10.0,Variable,5.8,-,N/A,,Clear,0,2013-07-31 17:53:00
12:53 PM,88.0,34.0,15,30.10,10.0,Variable,4.6,-,N/A,,Partly Cloudy,0,2013-07-31 18:53:00
1:53 PM,89.1,34.0,14,30.09,10.0,South,12.7,-,N/A,,Partly Cloudy,190,2013-07-31 19:53:00
2:53 PM,89.1,37.0,16,30.09,10.0,SSW,13.8,20.7,N/A,,Partly Cloudy,210,2013-07-31 20:53:00
3:53 PM,89.1,37.9,16,30.08,10.0,SW,18.4,27.6,N/A,,Clear,220,2013-07-31 21:53:00
4:53 PM,87.1,36.0,16,30.07,10.0,South,11.5,19.6,N/A,,Clear,190,2013-07-31 22:53:00
5:53 PM,87.1,37.0,17,30.04,10.0,South,10.4,-,N/A,,Clear,180,2013-07-31 23:53:00
6:53 PM,86.0,37.0,18,30.02,10.0,SW,8.1,-,N/A,,Clear,220,2013-08-01 00:53:00
7:53 PM,78.1,41.0,27,30.01,10.0,South,3.5,-,N/A,,Clear,190,2013-08-01 01:53:00
8:53 PM,71.1,39.9,32,30.01,10.0,Calm,Calm,-,N/A,,Partly Cloudy,0,2013-08-01 02:53:00
9:53 PM,71.1,39.0,31,29.99,10.0,SE,3.5,-,N/A,,Partly Cloudy,140,2013-08-01 03:53:00
10:53 PM,66.0,43.0,43,29.99,10.0,ESE,4.6,-,N/A,,Clear,120,2013-08-01 04:53:00
11:53 PM,63.0,44.1,50,29.99,10.0,ENE,3.5,-,N/A,,Clear,60,2013-08-01 05:53:00